Weather History for Fort Myers, FL

Change the Weather History Date:

Wednesday, November 7, 2012

  Actual Average Record
Temperature  
Mean Temperature 66 °F 73 °F  
Max Temperature 73 °F 83 °F 91 °F (1943)
Min Temperature 58 °F 64 °F 47 °F (1954)
Degree Days  
Heating Degree Days 0 0  
Month to date heating degree days 0 0  
Since 1 July heating degree days 3 2  
Cooling Degree Days 1 8  
Month to date cooling degree days 36 63  
Year to date cooling degree days 4136 3711  
Growing Degree Days 16 (Base 50)    
Moisture  
Dew Point 52 °F    
Average Humidity 65    
Maximum Humidity 84    
Minimum Humidity 44    
Precipitation  
Precipitation 0.00 in 0.09 in 1.97 in (1983)
Month to date precipitation 0.66 0.61  
Year to date precipitation 47.43 52.87  
Sea Level Pressure  
Sea Level Pressure 29.94 in    
Wind  
Wind Speed 9 mph (NNW)    
Max Wind Speed 22 mph    
Max Gust Speed 29 mph    
Visibility 10 miles    
Events      
T = Trace of Precipitation, MM = Missing Value Source: NWS Daily Summary

Daily Weather History Graph

Daily Weather History Graph

Search for Another Location

Airport:

Trip Planner

Search our weather history database for the weather conditions in past years. The results will help you decide how hot, cold, wet, or windy it might be!

Date:

Astronomy

Nov. 07, 2012 Rise Set
Actual Time 6:41 AM EST 5:40 PM EST
Civil Twilight 6:17 AM EST 6:04 PM EST
Nautical Twilight 5:49 AM EST 6:32 PM EST
Astronomical Twilight 5:22 AM EST 6:59 PM EST
Moon 12:12 AM EST (11/7) 1:14 PM EST (11/7)
Length of Visible Light 11h 47m
Length of Day
10h 59m
Last Quarter, 43% of the Moon is Illuminated
Nov 7
Last Quarter
Nov 13
New
Nov 20
First Quarter
Nov 28
Full
Dec 6
Last Quarter

Hourly Weather History & Observations

Time (EST) Temp. Dew Point Humidity Pressure Visibility Wind Dir Wind Speed Gust Speed Precip Events Conditions
12:53 AM 64.9 °F 57.0 °F 75% 29.88 in 10.0 mi NNW 8.1 mph - N/A   Clear
1:53 AM 63.0 °F 55.0 °F 75% 29.88 in 10.0 mi North 4.6 mph - N/A   Clear
2:53 AM 62.1 °F 55.0 °F 78% 29.88 in 10.0 mi NNW 3.5 mph - N/A   Clear
3:53 AM 62.1 °F 54.0 °F 75% 29.88 in 10.0 mi NNW 3.5 mph - N/A   Clear
4:53 AM 61.0 °F 54.0 °F 78% 29.89 in 10.0 mi NW 3.5 mph - N/A   Partly Cloudy
5:53 AM 61.0 °F 55.9 °F 83% 29.92 in 10.0 mi North 9.2 mph - N/A   Clear
6:53 AM 60.1 °F 55.0 °F 83% 29.94 in 10.0 mi North 6.9 mph - N/A   Mostly Cloudy
7:53 AM 61.0 °F 54.0 °F 78% 29.96 in 10.0 mi NNE 10.4 mph - N/A   Mostly Cloudy
8:53 AM 62.1 °F 53.1 °F 72% 29.97 in 10.0 mi NNE 8.1 mph - N/A   Overcast
9:53 AM 64.9 °F 54.0 °F 68% 29.98 in 10.0 mi NE 5.8 mph - N/A   Clear
10:53 AM 66.9 °F 54.0 °F 63% 29.98 in 10.0 mi NW 11.5 mph 19.6 mph N/A   Partly Cloudy
11:53 AM 69.1 °F 54.0 °F 58% 29.95 in 10.0 mi NW 17.3 mph - N/A   Mostly Cloudy
12:53 PM 72.0 °F 52.0 °F 49% 29.92 in 10.0 mi NNW 15.0 mph 24.2 mph N/A   Scattered Clouds
1:53 PM 73.0 °F 51.1 °F 46% 29.90 in 10.0 mi NW 16.1 mph - N/A   Clear
2:53 PM 72.0 °F 48.9 °F 44% 29.90 in 10.0 mi NNW 17.3 mph 27.6 mph N/A   Clear
3:53 PM 70.0 °F 48.0 °F 46% 29.91 in 10.0 mi NW 18.4 mph 25.3 mph N/A   Clear
4:53 PM 68.0 °F 48.0 °F 49% 29.92 in 10.0 mi NW 13.8 mph - N/A   Partly Cloudy
5:53 PM 64.9 °F 48.0 °F 54% 29.93 in 10.0 mi NW 10.4 mph - N/A   Clear
6:53 PM 63.0 °F 48.9 °F 60% 29.95 in 10.0 mi NNW 8.1 mph - N/A   Clear
7:53 PM 63.0 °F 48.9 °F 60% 29.97 in 10.0 mi North 5.8 mph - N/A   Mostly Cloudy
8:53 PM 63.0 °F 48.9 °F 60% 30.00 in 10.0 mi North 6.9 mph - N/A   Overcast
9:53 PM 62.1 °F 48.0 °F 60% 30.01 in 10.0 mi North 6.9 mph - N/A   Mostly Cloudy
10:53 PM 59.0 °F 48.0 °F 67% 30.00 in 10.0 mi NNE 4.6 mph - N/A   Clear
11:53 PM 60.1 °F 50.0 °F 69% 30.00 in 10.0 mi NE 4.6 mph - N/A   Overcast